Погода в Лимане

Россия / Ставропольский край     45°44′26″N   43°00′56″E
темп.,
°C
ветер,
м/с
пор.,
м/с
влажн.,
%
обл.,
%
осадки,
мм/ч
давл.,
гПа
погр.,
м
15 мая, сб
сб1500:00+16вюв47644 0.0 1012119
03:00+15вюв456480 0.0 101271
06:00+16юв356923 0.0 101299
09:00+23юз11610 0.0 1013449
12:00+27св11546 0.0 10131044
15:00+29всв234264 0.0 10121170
18:00+28с22480 0.0 101127
21:00+22юв61529100 0.0 1012305
16 мая, вс
вс1600:00+18вюв41041100 0.0 1011177
03:00+16вюв41147100 0.0 1011213
06:00+15вюв41264100 0.0 1011266
09:00+21юв695197 0.0 1011528
12:00+28вюв810302 0.0 10101213
15:00+30юв7123029 0.0 10082027
18:00+26вюв511415 0.0 1006234
21:00+21вюв71641100 0.0 1008448
17 мая, пн
пн1700:00+19вюв71647100 0.0 1006455
03:00+17вюв5135144 0.0 1006347
06:00+17вюв6155928 0.0 1006426
09:00+22юв71046100 0.0 1007662
12:00+28юв79360 0.0 10071129
15:00+30юв68305 0.0 10061726
18:00+27ююв3346100 0.0 100744
21:00+21ссз4679100 0.0 1009177
18 мая, вт
вт1800:00+17зсз3581100 0.0 100995
03:00+16сз489499 0.0 1009203
06:00+18зсз7129373 0.0 1010487
09:00+21сз897257 0.0 10111100
12:00+19з9128193 0.3 1012800
15:00+22зсз9106594 0.3 1012932
18:00+20з71078100 0.0 1013680
21:00+17з41091100 0.0 1014294
19 мая, ср
ср1900:00+15з3995100 0.0 1015196
03:00+14з37950 0.0 1016134
06:00+15з35910 0.0 1017159
09:00+21з22670 0.0 1016627
12:00+25ссв01490 0.0 10151417
15:00+27всв33420 0.0 10131651
18:00+25всв46545 0.0 1013208
21:00+21в3356100 0.0 101325